Voltar ao catálogo

STARLINK-32463

AtivoComunicaçõesVLEO
NORAD 62130·PAYLOAD·🇺🇸 United States

Lançado Nov 27, 2024 de Cape Canaveral Space Force Station

Loading…

Próximas Passagens (próximas 24 horas)

TLE

AtualizadoSource: CelesTrak SupGP

Época: Sep 15, 2026, 03:34 UTC

1 62130C 24222S   26258.14909722  .00056917  00000+0  20615-2 0  2582
2 62130  43.0004 145.9924 0001269 276.5586 203.1827 15.27550503    13

Acompanhe STARLINK-32463 em tempo real com AllMySat

Download on the App Store